User: anonymous   Login
Location: Unspecified
(0.0000°N, 0.0000°E)
Time: 16:28:15
(UTC+00:00)
Language:

FALCON 9 R/B - Orbit

View from above orbital plane
View from above orbital plane
View from above satellite
View from above satellite

Ground track
Ground track

The orbit data is extracted from the following two-line orbital elements,

1 37253U 10066K   14325.55454022  .00016657  00000-0  15881-2 0  2561
2 37253 034.5225 299.1623 4350895 346.2843 004.9231 06.77110004 96199
Epoch (UTC): 21 November 2014 13:18:32
Eccentricity: 0.4350895
inclination: 34.5225°
perigee height: 289 km
apogee height: 10559 km
right ascension of ascending node: 299.1623°
argument of perigee: 346.2843°
revolutions per day: 6.77110004
mean anomaly at epoch: 4.9231°
orbit number at epoch: 9619

The dashed part of the orbit path shows where the satellite is in the earth's shadow,  

DLR